Zurück zum Katalog

STARLINK-30592

AktivKommunikationVLEO
NORAD 58102·PAYLOAD·🇺🇸 United States

Gestartet Oct 21, 2023 von Vandenberg Space Force Base

Loading…

Nächste Überflüge (nächste 24 Stunden)

TLE

AktuellSource: CelesTrak SupGP

Epoche: Sep 15, 2026, 03:01 UTC

1 58102C 23161F   26258.12618056  .00065820  00000+0  19444-2 0  2583
2 58102  53.1605   2.5315 0001146  85.6059  98.9081 15.34362273    11

Verfolge STARLINK-30592 in Echtzeit mit AllMySat

Download on the App Store